Weather reports worldwide

Advertisment
Aerodrome Albert-Bray, France (7059): temperature & dewpoint: 20.05.2019 02:00:00 - 26.05.2019 02:00:00 (CEST)Aerodrome Albert-Bray, France (7059): wind speed & gusts: 20.05.2019 02:00:00 - 26.05.2019 02:00:00 (CEST)Aerodrome Albert-Bray, France (7059): wind direction: 20.05.2019 02:00:00 - 26.05.2019 02:00:00 (CEST)Aerodrome Albert-Bray, France (7059): reduced air pressure: 20.05.2019 02:00:00 - 26.05.2019 02:00:00 (CEST)Aerodrome Albert-Bray, France (7059): visibility: 20.05.2019 02:00:00 - 26.05.2019 02:00:00 (CEST)Aerodrome Albert-Bray, France (7059): precipitation: 20.05.2019 02:00:00 - 26.05.2019 02:00:00 (CEST)
Date & Time tt [°C] td [°C] ff [km/h] ff [kn] fx [km/h] fx [kn] dd ppp [hPa] vv [km] rr [mm]
26.05.2019 02:00:00 - - - - - - - - - -
26.05.2019 01:00:00 9,9 8,5 11 6 16 9 WSW 1019,5 6 0,0
26.05.2019 00:00:00 11,8 9,7 9 5 19 10 W 1019,7 10 0,0
25.05.2019 23:00:00 12,7 9,9 11 6 16 9 WNW 1019,6 18 0,0
25.05.2019 22:00:00 13,5 9,5 9 5 25 13 WNW 1019,1 10 0,0
25.05.2019 21:00:00 16,0 9,6 16 9 31 17 WNW 1018,8 10 0,0
25.05.2019 20:00:00 17,5 10,1 18 10 35 19 NW 1018,5 28 0,0
25.05.2019 19:00:00 18,0 10,1 22 12 35 19 WNW 1018,2 10 0,0
25.05.2019 18:00:00 19,2 10,7 18 10 32 17 NNW 1017,9 10 0,0
25.05.2019 17:00:00 19,2 12,5 16 9 32 17 N 1018,1 10 0,0
25.05.2019 16:00:00 18,1 11,9 18 10 32 17 NNW 1018,3 10 0,0
25.05.2019 15:00:00 19,0 11,3 19 10 35 19 NW 1018,6 15 0,0
25.05.2019 14:00:00 19,2 12,9 16 9 28 15 W 1018,8 10 0,0
25.05.2019 13:00:00 16,5 12,6 8 4 15 8 W 1019,3 16 0,0
25.05.2019 12:00:00 14,8 12,7 8 4 17 9 W 1019,5 7 0,0
25.05.2019 11:00:00 14,6 12,3 5 3 17 9 WSW 1019,4 7 0,0
25.05.2019 10:00:00 13,8 11,7 9 5 17 9 WNW 1019,1 6 0,0
25.05.2019 09:00:00 13,4 11,5 5 3 15 8 W 1018,5 6 0,0
25.05.2019 08:00:00 13,1 11,3 5 3 11 6 - 1018,1 6 0,0
25.05.2019 07:00:00 11,7 10,1 2 1 12 7 W 1018,0 6 0,0
25.05.2019 06:00:00 11,7 9,8 8 4 16 9 WNW 1017,8 7 0,0
25.05.2019 05:00:00 11,9 10,0 10 5 16 9 NW 1017,7 7 0,0
25.05.2019 04:00:00 11,7 9,4 5 3 13 7 WNW 1017,8 7 0,0
25.05.2019 03:00:00 11,9 9,5 5 3 14 8 - 1017,8 8 0,0
25.05.2019 02:00:00 11,9 9,5 9 5 17 9 NW 1018,0 9 0,0
25.05.2019 01:00:00 12,3 9,7 13 7 24 13 NW 1018,3 10 0,0
25.05.2019 00:00:00 12,4 9,6 16 9 23 13 NW 1018,2 10 0,0
24.05.2019 23:00:00 13,1 9,9 15 8 26 14 NW 1017,9 10 0,0
24.05.2019 22:00:00 14,3 8,9 9 5 21 12 N 1017,2 10 0,0
24.05.2019 21:00:00 18,0 8,8 15 8 26 14 N 1016,6 10 0,0
24.05.2019 20:00:00 18,1 9,2 16 9 26 14 N 1016,2 10 0,0
24.05.2019 19:00:00 19,7 10,1 15 8 24 13 N 1015,9 24 0,0
24.05.2019 18:00:00 19,6 10,8 13 7 22 12 N 1016,0 10 0,0
24.05.2019 17:00:00 19,6 10,8 11 6 26 14 NNW 1016,1 10 0,0
24.05.2019 16:00:00 20,8 11,1 14 8 28 15 N 1016,2 17 0,0
24.05.2019 15:00:00 21,4 10,5 9 5 29 16 NW 1016,2 16 0,0
24.05.2019 14:00:00 21,1 9,7 12 7 33 18 NW 1016,5 16 0,0
24.05.2019 13:00:00 19,8 11,0 13 7 27 14 NW 1016,6 14 0,0
24.05.2019 12:00:00 18,6 11,9 11 6 23 12 WNW 1016,7 14 0,0
24.05.2019 11:00:00 16,8 11,7 10 5 23 12 W 1016,6 13 0,0
24.05.2019 10:00:00 15,2 10,2 9 5 19 11 WNW 1016,9 10 0,0
24.05.2019 09:00:00 13,6 9,8 13 7 23 12 WNW 1017,0 10 0,0
24.05.2019 08:00:00 12,7 8,6 9 5 14 7 W 1016,9 10 0,0
24.05.2019 07:00:00 11,8 7,5 11 6 21 11 WNW 1016,6 10 0,0
24.05.2019 06:00:00 11,9 7,4 13 7 23 12 WNW 1016,4 18 0,0
24.05.2019 05:00:00 12,1 8,0 15 8 21 11 NW 1016,3 10 0,0
24.05.2019 04:00:00 12,5 9,5 11 6 19 10 NW 1016,2 10 0,0
24.05.2019 03:00:00 12,2 9,9 11 6 16 9 NW 1016,1 10 0,0
24.05.2019 02:00:00 13,4 10,0 11 6 23 12 WNW 1016,4 14 0,0
24.05.2019 01:00:00 14,9 10,7 12 6 19 10 WNW 1016,5 19 0,0
24.05.2019 00:00:00 15,6 10,4 14 8 24 13 WNW 1016,7 15 0,0
23.05.2019 23:00:00 17,1 9,0 5 3 9 5 S 1016,4 10 0,0
23.05.2019 22:00:00 18,4 9,7 5 3 8 4 S 1016,5 10 0,0
23.05.2019 21:00:00 19,3 9,5 6 4 10 5 SSW 1016,3 15 0,0
23.05.2019 20:00:00 20,4 10,5 5 3 10 5 SSW 1016,2 10 0,0
23.05.2019 19:00:00 20,6 9,8 5 3 11 6 SSW 1016,4 10 0,0
23.05.2019 18:00:00 21,1 9,0 7 4 18 10 SW 1016,6 32 0,0
23.05.2019 17:00:00 21,5 9,4 9 5 19 11 SSW 1016,9 20 0,0
23.05.2019 16:00:00 22,3 9,1 8 4 25 13 SSE 1017,1 10 0,0
23.05.2019 15:00:00 22,1 9,9 6 4 22 12 SSW 1017,6 19 0,0
23.05.2019 14:00:00 21,9 9,8 13 7 20 11 SSW 1018,0 10 0,0
23.05.2019 13:00:00 20,6 8,2 9 5 19 10 S 1018,6 10 0,0
23.05.2019 12:00:00 20,1 7,8 5 3 16 9 SSW 1018,7 39 0,0
23.05.2019 11:00:00 18,5 8,7 8 4 16 9 S 1019,1 10 0,0
23.05.2019 10:00:00 16,5 9,7 5 3 10 5 SSW 1019,3 19 0,0
23.05.2019 09:00:00 14,1 10,3 4 2 7 4 SSW 1019,4 14 0,0
23.05.2019 08:00:00 11,2 9,9 2 1 6 3 ESE 1019,6 8 0,0
23.05.2019 07:00:00 8,5 7,7 0 0 6 3 N 1019,3 6 0,0
23.05.2019 06:00:00 8,3 7,4 4 2 5 3 SW 1019,2 7 0,0
23.05.2019 05:00:00 7,6 6,2 0 0 4 2 N 1019,4 6 0,0
23.05.2019 04:00:00 9,0 7,1 0 0 2 1 N 1019,5 10 0,0
23.05.2019 03:00:00 9,5 8,1 0 0 4 2 N 1019,6 17 0,0
23.05.2019 02:00:00 9,9 7,8 3 2 10 6 N 1020,0 16 0,0
23.05.2019 01:00:00 10,4 7,8 9 5 11 6 NW 1020,3 10 0,0
23.05.2019 00:00:00 11,8 8,3 7 4 11 6 NNW 1020,3 23 0,0
22.05.2019 23:00:00 12,8 8,3 10 5 12 7 NW 1020,4 27 0,0
22.05.2019 22:00:00 15,5 7,8 8 4 9 5 WNW 1020,2 10 0,0
22.05.2019 21:00:00 17,2 9,9 7 4 10 5 NNW 1019,9 16 0,0
22.05.2019 20:00:00 18,0 9,6 5 3 10 5 NNW 1019,8 10 0,0
22.05.2019 19:00:00 18,5 8,5 5 3 14 8 WNW 1019,8 10 0,0
22.05.2019 18:00:00 18,6 8,5 11 6 21 11 W 1019,9 34 0,0
22.05.2019 17:00:00 19,7 7,1 15 8 24 13 W 1020,3 10 0,0
22.05.2019 16:00:00 19,7 7,7 16 9 29 16 W 1020,4 40 0,0
22.05.2019 15:00:00 20,2 9,1 13 7 38 20 W 1020,4 10 0,0
22.05.2019 14:00:00 19,9 9,2 19 10 29 16 W 1020,6 35 0,0
22.05.2019 13:00:00 18,9 9,1 15 8 30 16 W 1020,8 10 0,0
22.05.2019 12:00:00 18,5 10,3 9 5 22 12 W 1020,7 10 0,0
22.05.2019 11:00:00 16,8 11,1 9 5 19 11 WNW 1020,8 10 0,0
22.05.2019 10:00:00 14,6 9,6 9 5 16 9 WSW 1020,7 10 0,0
22.05.2019 09:00:00 11,8 10,7 5 3 10 5 WSW 1020,7 7 0,0
22.05.2019 08:00:00 8,6 8,0 4 2 5 3 S 1020,6 0,9 0,2
22.05.2019 07:00:00 8,0 7,7 4 2 7 4 W 1020,5 1,1 0,0
22.05.2019 06:00:00 7,0 6,7 3 2 9 5 N 1020,5 0,3 0,0
22.05.2019 05:00:00 7,0 6,6 6 4 11 6 WNW 1020,6 2,7 0,0
22.05.2019 04:00:00 7,5 6,9 8 4 12 7 WNW 1020,5 5 0,0
22.05.2019 03:00:00 8,6 7,5 11 6 15 8 W 1020,3 6 0,0
22.05.2019 02:00:00 8,9 7,3 4 2 13 7 W 1020,3 15 0,0
22.05.2019 01:00:00 10,3 7,4 9 5 12 7 WNW 1020,2 10 0,0
22.05.2019 00:00:00 11,0 7,1 8 4 15 8 NW 1020,2 40 0,0
21.05.2019 23:00:00 11,6 6,9 11 6 15 8 NW 1020,1 10 0,0
21.05.2019 22:00:00 13,3 7,9 11 6 19 10 NNW 1019,5 10 0,0
21.05.2019 21:00:00 14,3 7,6 13 7 19 10 N 1018,8 59 0,0
21.05.2019 20:00:00 17,0 8,2 14 8 31 17 N 1018,1 60 0,0
21.05.2019 19:00:00 17,8 8,6 22 12 31 17 N 1017,6 10 0,0
21.05.2019 18:00:00 18,6 9,9 18 10 34 18 NNW 1017,6 10 0,0
21.05.2019 17:00:00 18,6 9,4 15 8 28 15 NNW 1017,5 10 0,0
21.05.2019 16:00:00 18,7 9,7 15 8 32 17 NNW 1017,5 10 0,0
21.05.2019 15:00:00 19,3 10,3 18 10 35 19 NNW 1017,2 29 0,0
21.05.2019 14:00:00 18,2 11,0 18 10 42 23 N 1017,3 18 0,0
21.05.2019 13:00:00 18,5 10,8 18 10 32 17 N 1017,1 9 0,0
21.05.2019 12:00:00 18,0 10,4 18 10 31 17 N 1016,9 9 0,0
21.05.2019 11:00:00 16,6 11,1 18 10 30 16 N 1016,8 9 0,0
21.05.2019 10:00:00 13,5 13,2 11 6 20 11 WNW 1016,9 5 0,0
21.05.2019 09:00:00 11,2 11,0 15 8 21 12 WNW 1016,6 1,3 0,0
21.05.2019 08:00:00 9,7 9,4 14 8 18 10 WNW 1016,2 0,1 0,0
21.05.2019 07:00:00 8,8 8,5 11 6 28 15 NW 1015,8 0,1 0,0
21.05.2019 06:00:00 8,8 8,5 20 11 29 16 WNW 1015,5 0,1 0,2
21.05.2019 05:00:00 8,3 7,7 15 8 22 12 WNW 1015,3 2,1 0,0
21.05.2019 04:00:00 8,7 7,9 14 8 23 12 WNW 1015,2 1,6 0,0
21.05.2019 03:00:00 8,9 7,8 16 9 24 13 WNW 1015,0 2,2 0,0
21.05.2019 02:00:00 9,4 8,2 15 8 25 14 WNW 1015,0 4,7 0,0
21.05.2019 01:00:00 10,0 8,8 13 7 20 11 WNW 1015,1 5 0,0
21.05.2019 00:00:00 10,5 8,9 13 7 24 13 WNW 1015,0 6 0,0
20.05.2019 23:00:00 10,6 8,7 14 7 20 11 NNW 1014,6 7 0,0
20.05.2019 22:00:00 11,1 8,8 11 6 22 12 NNW 1013,9 10 0,0
20.05.2019 21:00:00 13,3 9,0 18 10 29 16 N 1013,3 10 0,0
20.05.2019 20:00:00 14,8 9,4 22 12 32 18 N 1012,7 10 0,0
20.05.2019 19:00:00 16,0 10,1 22 12 36 20 NNW 1012,3 10 0,0
20.05.2019 18:00:00 16,4 10,3 22 12 38 20 N 1012,0 16 0,0
20.05.2019 17:00:00 16,9 10,5 22 12 37 20 N 1012,0 10 0,0
20.05.2019 16:00:00 16,5 10,6 21 11 35 19 N 1011,8 18 0,0
20.05.2019 15:00:00 17,1 11,4 16 9 31 17 N 1011,6 10 0,0
20.05.2019 14:00:00 16,0 11,0 14 8 - - N 1011,2 13 0,0
20.05.2019 13:00:00 15,5 10,7 18 10 29 16 NNW 1010,9 14 0,0
20.05.2019 12:00:00 14,6 10,2 17 9 27 15 NNW 1010,6 11 0,0
20.05.2019 11:00:00 13,3 10,3 18 10 28 15 NNW 1010,7 9 0,0
20.05.2019 10:00:00 11,8 9,0 18 10 28 15 NNW 1010,7 6 0,0
20.05.2019 09:00:00 11,2 9,1 18 10 37 20 NNW 1010,5 5 0,0
20.05.2019 08:00:00 10,5 9,1 22 12 32 17 NNW 1010,0 5 0,0
20.05.2019 07:00:00 10,1 9,0 16 9 27 15 NNW 1009,7 4,3 0,0
20.05.2019 06:00:00 10,0 9,1 16 9 30 16 NNW 1009,5 4,0 0,0
20.05.2019 05:00:00 9,9 9,0 15 8 29 15 NW 1009,2 2,9 0,0
20.05.2019 04:00:00 10,0 9,2 17 9 26 14 NNW 1009,1 4,6 0,0
20.05.2019 03:00:00 10,0 9,4 16 9 26 14 NNW 1009,2 5 0,2
20.05.2019 02:00:00 10,0 9,2 16 9 29 16 NNW 1009,5 3,6 6,7

tt = temperature
td = dewpoint
ff = wind speed
fx = gusts
dd = wind direction
ppp = reduced air pressure
vv = visibility
rr = precipitation

Next stations